Regional Weather Roundup
Issued by NWS

Home | Current Version | Previous Version | Text Only | Print | Product List | Glossary On
Versions: 1 2 3 4 5 6 7 8 9 10 11 12 13 14 15 16 17 18 19 20 21 22 23 24 25 26 27 28 29 30 31 32 33 34 35 36 37 38 39 40 41 42 43 44 45 46 47 48 49 50
000
ASUS43 KMKX 180821
RWRWI

WISCONSIN REGIONAL WEATHER ROUNDUP
NATIONAL WEATHER SERVICE MILWAUKEE/SULLIVAN WI
300 AM CDT WED OCT 18 2017

NOTE: "FAIR" INDICATES FEW OR NO CLOUDS BELOW 12,000 FEET WITH NO
SIGNIFICANT WEATHER AND/OR OBSTRUCTIONS TO VISIBILITY.

WIZ001-002-006>008-014>016-023>028-180900-
NORTHWEST WISCONSIN

CITY           SKY/WX    TMP DP  RH WIND       PRES   REMARKS
SUPERIOR ARPT  CLEAR     51  43  73 SW7       29.80S
ASHLAND        CLEAR     56  44  64 S7        29.83F
HAYWARD        CLEAR     53  43  68 S8        29.87F
SIREN          CLEAR     56  43  62 S7        29.85S
CUMBERLAND     CLEAR     45  41  87 S7        29.89S
RICE LAKE      CLEAR     47  42  82 SE5       29.91F
CHETEK         CLEAR     50  44  81 SE3       29.91S
LADYSMITH      CLEAR     50  44  79 S6        29.93F
EAU CLAIRE     CLEAR     49  43  80 S6        29.92F
MENOMONIE      CLEAR     54  44  70 S7        29.92S
NEW RICHMOND   CLEAR     53  43  69 S10       29.88F
OSCEOLA        CLEAR     53  44  71 SE3       29.90S
$$

WIZ003>005-009-010-017-018-180900-
NORTH CENTRAL WISCONSIN

CITY           SKY/WX    TMP DP  RH WIND       PRES   REMARKS
MANITOWISH WTR CLEAR     48  45  91 S6        29.91S
ARBOR VITAE    CLEAR     52  46  79 S7        29.93S
WOODRUFF       CLEAR     52  46  79 S7        29.93S
RHINELANDER    CLEAR     52  45  77 SW9       29.95F
EAGLE RIVER    CLEAR     46  41  82 CALM      29.93F
LAND O LAKES   CLEAR     48  43  84 S3        29.94S
PHILLIPS       CLEAR     50  44  78 S5        29.92S
TOMAHAWK       CLEAR     44  41  91 CALM      29.96S
MEDFORD        CLEAR     51  43  73 S8        29.95S
MERRILL        CLEAR     51  44  77 SW5       29.97S
$$

WIZ029-030-035-036-043>047-180900-
CENTRAL WISCONSIN

CITY           SKY/WX    TMP DP  RH WIND       PRES   REMARKS
WAUSAU         CLEAR     50  44  80 VRB3      29.96F
MOSINEE        CLEAR     48  43  81 S8        29.99S
MARSHFIELD     CLEAR     47  41  80 S8        29.97F
STEVENS POINT  CLEAR     46  42  85 S7        30.00F
WAUPACA        CLEAR     50  44  80 S6        30.01F
WAUTOMA        CLEAR     41  39  93 CALM      30.03F
WISC RAPIDS    CLEAR     49  43  80 S5        30.00F
CAMP DOUGLAS   CLEAR     55  44  66 S9        30.00F
$$

WIZ011>013-019>022-031-037>040-048>050-180900-
NORTHEAST WISCONSIN

CITY           SKY/WX    TMP DP  RH WIND       PRES   REMARKS
ANTIGO         CLEAR     47  42  85 S7        29.98F
SHAWANO        CLEAR     52  45  76 CALM      29.99F
OCONTO         CLEAR     52  44  73 SW3       29.99F
STURGEON BAY   CLEAR     56  44  64 SW9       30.01S
GREEN BAY      CLEAR     54  47  77 S7        30.01F
MANITOWOC      CLEAR     56  42  59 SW7       30.04F
APPLETON       CLEAR     52  39  62 SW13      30.01S
CLINTONVILLE   CLEAR     50  43  76 S3        30.00F
OSHKOSH        CLEAR     52  43  71 S12       30.03S
$$

WIZ032>034-041-042-053>061-180900-
SOUTHWEST WISCONSIN

CITY           SKY/WX    TMP DP  RH WIND       PRES   REMARKS
LA CROSSE      CLEAR     57  46  66 S10       29.98F
SPARTA         CLEAR     55  45  69 SW5       30.00F
VIROQUA        CLEAR     54  45  71 S8        30.02S
BOSCOBEL       FOG       41  41 100 CALM      30.04S VSB 1
PRAIRIE DU CHI CLEAR     55  42  60 CALM      30.03S
PLATTEVILLE    CLEAR     51  45  80 S7        30.06F
$$

WIZ056-057-062-063-064-067-068-180900-
SOUTH CENTRAL WISCONSIN

CITY           SKY/WX    TMP DP  RH WIND       PRES   REMARKS
REEDSBURG      CLEAR     53  43  69 S8        30.03F
BARABOO/DELLS  CLEAR     53  41  62 S10       30.04S
LONE ROCK      CLEAR     48  42  80 SE3       30.05S
MINERAL POINT  CLEAR     52  45  76 S7        30.06F
MADISON        CLEAR     53  42  66 S8        30.07
MIDDLETON      CLEAR     53  42  66 S9        30.07S
WATERTOWN      CLEAR     50  44  78 S7        30.08S
MONROE         CLEAR     46  41  81 S10       30.08S
JANESVILLE     CLEAR     50  41  71 S5        30.10S
$$

WIZ051-052-058>065-066-070>072-180900-
SOUTHEAST WISCONSIN

CITY           SKY/WX    TMP DP  RH WIND       PRES   REMARKS
MILWAUKEE      CLEAR     54  42  64 SW10      30.10F
WAUKESHA       CLEAR     50  39  66 SW7       30.11S
MILWAUKEE/TIMM CLEAR     54  37  54 SW10G18   30.10F
RACINE         CLEAR     51  42  71 SW9       30.12F
BURLINGTON     CLEAR     49  42  78 S8        30.11F
KENOSHA        CLEAR     50  41  71 SW8       30.12S
FOND DU LAC    CLEAR     54  40  59 SW9       30.05S
SHEBOYGAN      CLEAR     53  44  71 SW8       30.06S
WEST BEND      CLEAR     54  39  58 SW8       30.08S
JUNEAU         CLEAR     49  42  76 S6        30.08F
$$

LSZ147-162-180900-
LAKE SUPERIOR

STATION/POSITION TIME  TEMP    WIND        PRES    WAVE
                       AIR SEA DIR/SP/G            HT/PER
                 (UTC) (F)     (DEG/KT/KT) (MB)    (FT/S)
W MID LAKE BUOY  0750   56 53              1008.8F   2/ 3
DEVILS ISLAND    0800   58     180/  7/  9 1009.1F
SAXON HARBOR     0740   62     190/  7/ 15 1009.8F
$$

LMZ867-665-643>646-180900-
LAKE MICHIGAN

STATION/POSITION TIME  TEMP    WIND        PRES    WAVE
                       AIR SEA DIR/SP/G            HT/PER
                 (UTC) (F)     (DEG/KT/KT) (MB)    (FT/S)
S GREEN BAY BUOY 0800   58 58  220/ 14/ 16 1015.6
N MID LAKE BUOY  0750   60 59  210/ 16/ 19 1016.1S   3/ 5
NORTHPORT PIER   0740   56     170/  3/  8 1015.6S
KEWAUNEE LAKESHO 0754   56     200/  6/  7 1015.9R
SHEBOYGAN LAKESH 0800   55     200/ 10/ 10 1017.6F
PORT WASHINGTON  0730   55     190/  5/  8 1019.6R
MILWAUKEE LAKESH 0800   55     220/  6/  7   N/A
S MID LAKE BUOY  0750   60 61  240/ 17/ 21 1020.4R   4/ 5
KENOSHA   LAKESH 0800   53     200/ 10/ 12 1020.0
$$

TC  - TEMPERATURE IN CELSIUS
VSB - VISIBILITY IN STATUTE MILES
WCI - WIND CHILL INDEX
HX  - HEAT INDEX





USA.gov is the U.S. government's official web portal to all federal, state and local government web resources and services.